TimeAKDT,TemperatureF,Dew PointF,Humidity,Sea Level PressureIn,VisibilityMPH,Wind Direction,Wind SpeedMPH,Gust SpeedMPH,PrecipitationIn,Events,Conditions,WindDirDegrees,DateUTC
12:06 AM,48.2,44.6,87,30.13,7.0,Calm,Calm,-,0.00,Rain,Light Rain,0,2012-10-06 08:06:00
12:17 AM,48.2,46.4,93,30.12,6.0,Variable,4.6,-,0.00,Rain,Light Rain,0,2012-10-06 08:17:00
12:26 AM,48.2,46.4,93,30.12,8.0,South,6.9,-,0.00,Rain,Light Rain,180,2012-10-06 08:26:00
12:53 AM,51.1,46.0,83,30.13,7.0,SSW,11.5,20.7,0.01,Rain,Rain,200,2012-10-06 08:53:00
1:53 AM,51.1,46.0,83,30.14,4.0,SSW,12.7,27.6,0.08,Rain,Rain,200,2012-10-06 09:53:00
2:14 AM,51.8,46.4,82,30.14,2.5,South,6.9,20.7,0.09,Rain,Heavy Rain,190,2012-10-06 10:14:00
2:43 AM,50.0,46.4,87,30.14,3.0,SSW,11.5,17.3,0.25,Rain,Heavy Rain,200,2012-10-06 10:43:00
2:53 AM,50.0,46.0,86,30.15,4.0,South,12.7,23.0,0.27,Rain,Rain,180,2012-10-06 10:53:00
3:17 AM,50.0,46.4,87,30.15,2.5,South,12.7,19.6,0.09,Rain,Heavy Rain,170,2012-10-06 11:17:00
3:26 AM,50.0,46.4,87,30.15,4.0,South,9.2,23.0,0.11,Rain,Rain,190,2012-10-06 11:26:00
3:53 AM,50.0,46.0,86,30.15,4.0,Variable,6.9,17.3,0.17,Rain,Rain,0,2012-10-06 11:53:00
4:53 AM,50.0,45.0,83,30.16,4.0,WSW,4.6,-,0.11,Rain,Rain,240,2012-10-06 12:53:00
5:04 AM,50.0,44.6,82,30.15,3.0,SSW,6.9,-,0.03,Rain,Heavy Rain,210,2012-10-06 13:04:00
5:30 AM,48.2,44.6,87,30.14,7.0,South,6.9,-,0.06,Rain,Light Rain,170,2012-10-06 13:30:00
5:53 AM,48.9,45.0,86,30.14,8.0,South,6.9,-,0.06,Rain,Light Rain,180,2012-10-06 13:53:00
6:53 AM,48.9,44.1,83,30.16,10.0,South,5.8,-,0.01,Rain,Light Rain,190,2012-10-06 14:53:00
7:03 AM,48.2,44.6,87,30.16,10.0,Variable,5.8,-,0.00,Rain,Light Rain,0,2012-10-06 15:03:00
7:53 AM,48.0,44.1,86,30.17,10.0,South,6.9,-,0.00,Rain,Light Rain,170,2012-10-06 15:53:00
8:37 AM,48.2,44.6,87,30.19,6.0,South,3.5,-,0.00,Rain,Light Rain,170,2012-10-06 16:37:00
8:53 AM,48.0,45.0,89,30.19,2.5,South,5.8,-,0.00,Rain,Light Rain,170,2012-10-06 16:53:00
9:05 AM,48.2,44.6,87,30.19,4.0,South,4.6,-,0.00,Rain,Light Rain,180,2012-10-06 17:05:00
9:18 AM,48.2,44.6,87,30.19,2.5,South,5.8,-,0.00,Rain,Light Rain,190,2012-10-06 17:18:00
9:24 AM,48.2,44.6,87,30.20,4.0,SSW,4.6,-,0.00,Rain,Light Rain,200,2012-10-06 17:24:00
9:53 AM,48.0,44.1,86,30.20,6.0,SW,6.9,-,0.00,,Overcast,220,2012-10-06 17:53:00
10:53 AM,48.9,44.1,83,30.22,10.0,SSW,10.4,-,N/A,,Mostly Cloudy,210,2012-10-06 18:53:00
11:03 AM,48.2,42.8,82,30.23,10.0,SW,5.8,-,N/A,,Mostly Cloudy,220,2012-10-06 19:03:00
11:53 AM,50.0,43.0,77,30.25,10.0,WSW,4.6,-,N/A,,Overcast,250,2012-10-06 19:53:00
12:16 PM,50.0,42.8,76,30.25,10.0,West,8.1,-,N/A,,Overcast,260,2012-10-06 20:16:00
12:53 PM,50.0,43.0,77,30.27,10.0,SW,5.8,-,N/A,,Overcast,220,2012-10-06 20:53:00
1:06 PM,50.0,42.8,76,30.27,10.0,Calm,Calm,-,N/A,,Overcast,0,2012-10-06 21:06:00
1:53 PM,51.1,43.0,74,30.28,10.0,Calm,Calm,-,N/A,,Overcast,0,2012-10-06 21:53:00
2:34 PM,53.6,44.6,72,30.27,10.0,Calm,Calm,-,N/A,,Overcast,0,2012-10-06 22:34:00
2:53 PM,52.0,44.1,74,30.27,10.0,NE,3.5,-,N/A,,Overcast,40,2012-10-06 22:53:00
3:53 PM,51.1,44.1,77,30.28,10.0,NNE,4.6,-,N/A,,Overcast,30,2012-10-06 23:53:00
4:17 PM,51.8,42.8,71,30.28,10.0,NNE,5.8,-,N/A,,Overcast,30,2012-10-07 00:17:00
4:53 PM,50.0,43.0,77,30.28,10.0,NE,4.6,-,N/A,,Overcast,40,2012-10-07 00:53:00
5:53 PM,50.0,44.1,80,30.28,10.0,NNE,5.8,-,N/A,,Overcast,30,2012-10-07 01:53:00
6:53 PM,50.0,44.1,80,30.27,10.0,Calm,Calm,-,N/A,,Overcast,0,2012-10-07 02:53:00
7:53 PM,48.0,43.0,83,30.29,10.0,Calm,Calm,-,N/A,,Mostly Cloudy,0,2012-10-07 03:53:00
8:02 PM,48.2,42.8,82,30.29,10.0,Calm,Calm,-,N/A,,Scattered Clouds,0,2012-10-07 04:02:00
8:53 PM,46.9,43.0,86,30.27,10.0,Calm,Calm,-,N/A,,Clear,0,2012-10-07 04:53:00
9:53 PM,46.9,43.0,86,30.29,10.0,Calm,Calm,-,N/A,,Clear,0,2012-10-07 05:53:00
10:53 PM,46.9,42.1,83,30.30,10.0,NNW,3.5,-,N/A,,Clear,340,2012-10-07 06:53:00
11:53 PM,46.9,43.0,86,30.30,10.0,Calm,Calm,-,N/A,,Clear,0,2012-10-07 07:53:00